Year,Month,Day,Hour,Minute,Value (Times are PST for temperature in C)
2017,05,14,00,00,9.00
2017,05,14,00,01,9.00
2017,05,14,00,02,9.00
2017,05,14,00,03,9.10
2017,05,14,00,04,9.10
2017,05,14,00,05,9.20
2017,05,14,00,06,9.20
2017,05,14,00,07,9.30
2017,05,14,00,08,9.30
2017,05,14,00,09,9.30
2017,05,14,00,10,9.30
2017,05,14,00,11,9.30
2017,05,14,00,12,9.20
2017,05,14,00,13,9.20
2017,05,14,00,14,9.20
2017,05,14,00,15,9.20
2017,05,14,00,16,9.20
2017,05,14,00,17,9.20
2017,05,14,00,18,9.20
2017,05,14,00,19,9.10
2017,05,14,00,20,9.10
2017,05,14,00,21,9.10
2017,05,14,00,22,9.10
2017,05,14,00,23,9.20
2017,05,14,00,24,9.20
2017,05,14,00,25,9.20
2017,05,14,00,26,9.20
2017,05,14,00,27,9.20
2017,05,14,00,28,9.20
2017,05,14,00,29,9.20
2017,05,14,00,30,9.20
2017,05,14,00,31,9.10
2017,05,14,00,32,9.10
2017,05,14,00,33,9.00
2017,05,14,00,34,8.90
2017,05,14,00,35,8.90
2017,05,14,00,36,8.80
2017,05,14,00,37,8.70
2017,05,14,00,38,8.70
2017,05,14,00,39,8.70
2017,05,14,00,40,8.70
2017,05,14,00,41,8.60
2017,05,14,00,42,8.50
2017,05,14,00,43,8.50
2017,05,14,00,44,8.50
2017,05,14,00,45,8.40
2017,05,14,00,46,8.40
2017,05,14,00,47,8.50
2017,05,14,00,48,8.50
2017,05,14,00,49,8.40
2017,05,14,00,50,8.40
2017,05,14,00,51,8.40
2017,05,14,00,52,8.40
2017,05,14,00,53,8.40
2017,05,14,00,54,8.40
2017,05,14,00,55,8.30
2017,05,14,00,56,8.30
2017,05,14,00,57,8.30
2017,05,14,00,58,8.30
2017,05,14,00,59,8.30
2017,05,14,01,00,8.30
2017,05,14,01,01,8.40
2017,05,14,01,02,8.40
2017,05,14,01,03,8.50
2017,05,14,01,04,8.50
2017,05,14,01,05,8.50
2017,05,14,01,06,8.50
2017,05,14,01,07,8.50
2017,05,14,01,08,8.50
2017,05,14,01,09,8.50
2017,05,14,01,10,8.50
2017,05,14,01,11,8.60
2017,05,14,01,12,8.60
2017,05,14,01,13,8.60
2017,05,14,01,14,8.60
2017,05,14,01,15,8.60
2017,05,14,01,16,8.60
2017,05,14,01,17,8.60
2017,05,14,01,18,8.50
2017,05,14,01,19,8.40
2017,05,14,01,20,8.40
2017,05,14,01,21,8.40
2017,05,14,01,22,8.40
2017,05,14,01,23,8.40
2017,05,14,01,24,8.40
2017,05,14,01,25,8.40
2017,05,14,01,26,8.40
2017,05,14,01,27,8.40
2017,05,14,01,28,8.40
2017,05,14,01,29,8.40
2017,05,14,01,30,8.30
2017,05,14,01,31,8.30
2017,05,14,01,32,8.40
2017,05,14,01,33,8.40
2017,05,14,01,34,8.40
2017,05,14,01,35,8.50
2017,05,14,01,36,8.50
2017,05,14,01,37,8.50
2017,05,14,01,38,8.50
2017,05,14,01,39,8.40
2017,05,14,01,40,8.40
2017,05,14,01,41,8.40
2017,05,14,01,42,8.40
2017,05,14,01,43,8.40
2017,05,14,01,44,8.50
2017,05,14,01,45,8.50
2017,05,14,01,46,8.50
2017,05,14,01,47,8.50
2017,05,14,01,48,8.50
2017,05,14,01,49,8.50
2017,05,14,01,50,8.50
2017,05,14,01,51,8.40
2017,05,14,01,52,8.30
2017,05,14,01,53,8.30
2017,05,14,01,54,8.30
2017,05,14,01,55,8.30
2017,05,14,01,56,8.30
2017,05,14,01,57,8.30
2017,05,14,01,58,8.30
2017,05,14,01,59,8.30
2017,05,14,02,00,8.30
2017,05,14,02,01,8.30
2017,05,14,02,02,8.20
2017,05,14,02,03,8.20
2017,05,14,02,04,8.20
2017,05,14,02,05,8.20
2017,05,14,02,06,8.10
2017,05,14,02,07,8.10
2017,05,14,02,08,8.00
2017,05,14,02,09,7.90
2017,05,14,02,10,7.90
2017,05,14,02,11,7.80
2017,05,14,02,12,7.80
2017,05,14,02,13,7.70
2017,05,14,02,14,7.70
2017,05,14,02,15,7.60
2017,05,14,02,16,7.60
2017,05,14,02,17,7.60
2017,05,14,02,18,7.60
2017,05,14,02,19,7.50
2017,05,14,02,20,7.50
2017,05,14,02,21,7.40
2017,05,14,02,22,7.40
2017,05,14,02,23,7.30
2017,05,14,02,24,7.30
2017,05,14,02,25,7.20
2017,05,14,02,26,7.20
2017,05,14,02,27,7.20
2017,05,14,02,28,7.10
2017,05,14,02,29,7.10
2017,05,14,02,30,7.10
2017,05,14,02,31,7.10
2017,05,14,02,32,7.00
2017,05,14,02,33,7.00
2017,05,14,02,34,6.90
2017,05,14,02,35,6.90
2017,05,14,02,36,6.90
2017,05,14,02,37,6.90
2017,05,14,02,38,6.90
2017,05,14,02,39,6.90
2017,05,14,02,40,6.90
2017,05,14,02,41,6.90
2017,05,14,02,42,6.90
2017,05,14,02,43,6.90
2017,05,14,02,44,6.80
2017,05,14,02,45,6.80
2017,05,14,02,46,6.80
2017,05,14,02,47,6.90
2017,05,14,02,48,6.90
2017,05,14,02,49,6.90
2017,05,14,02,50,6.90
2017,05,14,02,51,6.90
2017,05,14,02,52,6.80
2017,05,14,02,53,6.90
2017,05,14,02,54,6.90
2017,05,14,02,55,6.90
2017,05,14,02,56,6.90
2017,05,14,02,57,6.90
2017,05,14,02,58,7.00
2017,05,14,02,59,7.00
2017,05,14,03,00,7.00
2017,05,14,03,01,7.00
2017,05,14,03,02,7.10
2017,05,14,03,03,7.10
2017,05,14,03,04,7.10
2017,05,14,03,05,7.10
2017,05,14,03,06,7.20
2017,05,14,03,07,7.20
2017,05,14,03,08,7.20
2017,05,14,03,09,7.20
2017,05,14,03,10,7.20
2017,05,14,03,11,7.30
2017,05,14,03,12,7.30
2017,05,14,03,13,7.30
2017,05,14,03,14,7.30
2017,05,14,03,15,7.40
2017,05,14,03,16,7.40
2017,05,14,03,17,7.40
2017,05,14,03,18,7.40
2017,05,14,03,19,7.40
2017,05,14,03,20,7.40
2017,05,14,03,21,7.40
2017,05,14,03,22,7.40
2017,05,14,03,23,7.40
2017,05,14,03,24,7.50
2017,05,14,03,25,7.50
2017,05,14,03,26,7.50
2017,05,14,03,27,7.50
2017,05,14,03,28,7.50
2017,05,14,03,29,7.60
2017,05,14,03,30,7.60
2017,05,14,03,31,7.60
2017,05,14,03,32,7.60
2017,05,14,03,33,7.60
2017,05,14,03,34,7.60
2017,05,14,03,35,7.60
2017,05,14,03,36,7.60
2017,05,14,03,37,7.60
2017,05,14,03,38,7.60
2017,05,14,03,39,7.60
2017,05,14,03,40,7.50
2017,05,14,03,41,7.50
2017,05,14,03,42,7.50
2017,05,14,03,43,7.50
2017,05,14,03,44,7.50
2017,05,14,03,45,7.50
2017,05,14,03,46,7.50
2017,05,14,03,47,7.50
2017,05,14,03,48,7.50
2017,05,14,03,49,7.50
2017,05,14,03,50,7.50
2017,05,14,03,51,7.60
2017,05,14,03,52,7.60
2017,05,14,03,53,7.60
2017,05,14,03,54,7.60
2017,05,14,03,55,7.60
2017,05,14,03,56,7.60
2017,05,14,03,57,7.70
2017,05,14,03,58,7.80
2017,05,14,03,59,7.80
2017,05,14,04,00,7.90
2017,05,14,04,01,8.00
2017,05,14,04,02,8.00
2017,05,14,04,03,8.10
2017,05,14,04,04,8.10
2017,05,14,04,05,8.10
2017,05,14,04,06,8.10
2017,05,14,04,07,8.10
2017,05,14,04,08,8.20
2017,05,14,04,09,8.30
2017,05,14,04,10,8.30
2017,05,14,04,11,8.30
2017,05,14,04,12,8.20
2017,05,14,04,13,8.20
2017,05,14,04,14,8.20
2017,05,14,04,15,8.20
2017,05,14,04,16,8.20
2017,05,14,04,17,8.20
2017,05,14,04,18,8.10
2017,05,14,04,19,8.10
2017,05,14,04,20,8.10
2017,05,14,04,21,8.10
2017,05,14,04,22,8.00
2017,05,14,04,23,8.00
2017,05,14,04,24,8.00
2017,05,14,04,25,8.00
2017,05,14,04,26,8.10
2017,05,14,04,27,8.10
2017,05,14,04,28,8.10
2017,05,14,04,29,8.00
2017,05,14,04,30,8.00
2017,05,14,04,31,7.90
2017,05,14,04,32,7.90
2017,05,14,04,33,7.90
2017,05,14,04,34,8.00
2017,05,14,04,35,8.00
2017,05,14,04,36,8.00
2017,05,14,04,37,8.00
2017,05,14,04,38,8.00
2017,05,14,04,39,8.00
2017,05,14,04,40,8.00
2017,05,14,04,41,8.00
2017,05,14,04,42,8.00
2017,05,14,04,43,8.00
2017,05,14,04,44,7.90
2017,05,14,04,45,7.90
2017,05,14,04,46,7.90
2017,05,14,04,47,7.90
2017,05,14,04,48,7.90
2017,05,14,04,49,7.80
2017,05,14,04,50,7.80
2017,05,14,04,51,7.80
2017,05,14,04,52,7.70
2017,05,14,04,53,7.70
2017,05,14,04,54,7.70
2017,05,14,04,55,7.70
2017,05,14,04,56,7.60
2017,05,14,04,57,7.60
2017,05,14,04,58,7.60
2017,05,14,04,59,7.60
2017,05,14,05,00,7.60
2017,05,14,05,01,7.60
2017,05,14,05,02,7.60
2017,05,14,05,03,7.60
2017,05,14,05,04,7.60
2017,05,14,05,05,7.60
2017,05,14,05,06,7.60
2017,05,14,05,07,7.60
2017,05,14,05,08,7.50
2017,05,14,05,09,7.50
2017,05,14,05,10,7.40
2017,05,14,05,11,7.40
2017,05,14,05,12,7.40
2017,05,14,05,13,7.40
2017,05,14,05,14,7.30
2017,05,14,05,15,7.30
2017,05,14,05,16,7.30
2017,05,14,05,17,7.30
2017,05,14,05,18,7.30
2017,05,14,05,19,7.30
2017,05,14,05,20,7.20
2017,05,14,05,21,7.20
2017,05,14,05,22,7.20
2017,05,14,05,23,7.20
2017,05,14,05,24,7.20
2017,05,14,05,25,7.20
2017,05,14,05,26,7.10
2017,05,14,05,27,7.10
2017,05,14,05,28,7.10
2017,05,14,05,29,7.10
2017,05,14,05,30,7.10
2017,05,14,05,31,7.00
2017,05,14,05,32,7.00
2017,05,14,05,33,7.00
2017,05,14,05,34,6.90
2017,05,14,05,35,6.90
2017,05,14,05,36,6.90
2017,05,14,05,37,6.90
2017,05,14,05,38,6.80
2017,05,14,05,39,6.80
2017,05,14,05,40,6.80
2017,05,14,05,41,6.80
2017,05,14,05,42,6.70
2017,05,14,05,43,6.70
2017,05,14,05,44,6.70
2017,05,14,05,45,6.70
2017,05,14,05,46,6.70
2017,05,14,05,47,6.70
2017,05,14,05,48,6.70
2017,05,14,05,49,6.80
2017,05,14,05,50,6.80
2017,05,14,05,51,6.80
2017,05,14,05,52,6.80
2017,05,14,05,53,6.80
2017,05,14,05,54,6.80
2017,05,14,05,55,6.70
2017,05,14,05,56,6.70
2017,05,14,05,57,6.70
2017,05,14,05,58,6.70
2017,05,14,05,59,6.70
2017,05,14,06,00,6.70
2017,05,14,06,01,6.70
2017,05,14,06,02,6.60
2017,05,14,06,03,6.60
2017,05,14,06,04,6.60
2017,05,14,06,05,6.60
2017,05,14,06,06,6.60
2017,05,14,06,07,6.60
2017,05,14,06,08,6.60
2017,05,14,06,09,6.60
2017,05,14,06,10,6.60
2017,05,14,06,11,6.60
2017,05,14,06,12,6.60
2017,05,14,06,13,6.70
2017,05,14,06,14,6.70
2017,05,14,06,15,6.70
2017,05,14,06,16,6.70
2017,05,14,06,17,6.70
2017,05,14,06,18,6.70
2017,05,14,06,19,6.70
2017,05,14,06,20,6.70
2017,05,14,06,21,6.70
2017,05,14,06,22,6.70
2017,05,14,06,23,6.70
2017,05,14,06,24,6.70
2017,05,14,06,25,6.70
2017,05,14,06,26,6.80
2017,05,14,06,27,6.80
2017,05,14,06,28,6.80
2017,05,14,06,29,6.90
2017,05,14,06,30,6.90
2017,05,14,06,31,7.00
2017,05,14,06,32,7.00
2017,05,14,06,33,7.00
2017,05,14,06,34,7.10
2017,05,14,06,35,7.10
2017,05,14,06,36,7.10
2017,05,14,06,37,7.20
2017,05,14,06,38,7.20
2017,05,14,06,39,7.30
2017,05,14,06,40,7.30
2017,05,14,06,41,7.30
2017,05,14,06,42,7.40
2017,05,14,06,43,7.40
2017,05,14,06,44,7.40
2017,05,14,06,45,7.50
2017,05,14,06,46,7.60
2017,05,14,06,47,7.60
2017,05,14,06,48,7.70
2017,05,14,06,49,7.80
2017,05,14,06,50,7.90
2017,05,14,06,51,7.90
2017,05,14,06,52,7.90
2017,05,14,06,53,8.00
2017,05,14,06,54,8.00
2017,05,14,06,55,8.10
2017,05,14,06,56,8.10
2017,05,14,06,57,8.10
2017,05,14,06,58,8.20
2017,05,14,06,59,8.20
2017,05,14,07,00,8.30
2017,05,14,07,01,8.30
2017,05,14,07,02,8.30
2017,05,14,07,03,8.40
2017,05,14,07,04,8.40
2017,05,14,07,05,8.40
2017,05,14,07,06,8.40
2017,05,14,07,07,8.50
2017,05,14,07,08,8.50
2017,05,14,07,09,8.50
2017,05,14,07,10,8.60
2017,05,14,07,11,8.60
2017,05,14,07,12,8.70
2017,05,14,07,13,8.70
2017,05,14,07,14,8.70
2017,05,14,07,15,8.80
2017,05,14,07,16,8.80
2017,05,14,07,17,8.80
2017,05,14,07,18,8.80
2017,05,14,07,19,8.90
2017,05,14,07,20,8.90
2017,05,14,07,21,8.90
2017,05,14,07,22,8.90
2017,05,14,07,23,8.90
2017,05,14,07,24,8.90
2017,05,14,07,25,8.90
2017,05,14,07,26,8.90
2017,05,14,07,27,8.90
2017,05,14,07,28,9.00
2017,05,14,07,29,9.00
2017,05,14,07,30,9.00
2017,05,14,07,31,9.00
2017,05,14,07,32,9.00
2017,05,14,07,33,9.10
2017,05,14,07,34,9.10
2017,05,14,07,35,9.10
2017,05,14,07,36,9.10
2017,05,14,07,37,9.20
2017,05,14,07,38,9.20
2017,05,14,07,39,9.20
2017,05,14,07,40,9.20
2017,05,14,07,41,9.20
2017,05,14,07,42,9.20
2017,05,14,07,43,9.20
2017,05,14,07,44,9.30
2017,05,14,07,45,9.30
2017,05,14,07,46,9.30
2017,05,14,07,47,9.30
2017,05,14,07,48,9.30
2017,05,14,07,49,9.30
2017,05,14,07,50,9.30
2017,05,14,07,51,9.30
2017,05,14,07,52,9.30
2017,05,14,07,53,9.40
2017,05,14,07,54,9.40
2017,05,14,07,55,9.40
2017,05,14,07,56,9.40
2017,05,14,07,57,9.40
2017,05,14,07,58,9.40
2017,05,14,07,59,9.50
2017,05,14,08,00,9.50
2017,05,14,08,01,9.50
2017,05,14,08,02,9.60
2017,05,14,08,03,9.60
2017,05,14,08,04,9.60
2017,05,14,08,05,9.60
2017,05,14,08,06,9.60
2017,05,14,08,07,9.60
2017,05,14,08,08,9.60
2017,05,14,08,09,9.70
2017,05,14,08,10,9.70
2017,05,14,08,11,9.70
2017,05,14,08,12,9.70
2017,05,14,08,13,9.70
2017,05,14,08,14,9.70
2017,05,14,08,15,9.70
2017,05,14,08,16,9.70
2017,05,14,08,17,9.70
2017,05,14,08,18,9.70
2017,05,14,08,19,9.70
2017,05,14,08,20,9.70
2017,05,14,08,21,9.70
2017,05,14,08,22,9.70
2017,05,14,08,23,9.70
2017,05,14,08,24,9.70
2017,05,14,08,25,9.70
2017,05,14,08,26,9.70
2017,05,14,08,27,9.70
2017,05,14,08,28,9.70
2017,05,14,08,29,9.70
2017,05,14,08,30,9.70
2017,05,14,08,31,9.70
2017,05,14,08,32,9.70
2017,05,14,08,33,9.70
2017,05,14,08,34,9.70
2017,05,14,08,35,9.70
2017,05,14,08,36,9.70
2017,05,14,08,37,9.70
2017,05,14,08,38,9.70
2017,05,14,08,39,9.70
2017,05,14,08,40,9.70
2017,05,14,08,41,9.70
2017,05,14,08,42,9.70
2017,05,14,08,43,9.70
2017,05,14,08,44,9.70
2017,05,14,08,45,9.70
2017,05,14,08,46,9.70
2017,05,14,08,47,9.70
2017,05,14,08,48,9.70
2017,05,14,08,49,9.80
2017,05,14,08,50,9.80
2017,05,14,08,51,9.80
2017,05,14,08,52,9.80
2017,05,14,08,53,9.80
2017,05,14,08,54,9.80
2017,05,14,08,55,9.80
2017,05,14,08,56,9.80
2017,05,14,08,57,9.70
2017,05,14,08,58,9.70
2017,05,14,08,59,9.70
2017,05,14,09,00,9.70
2017,05,14,09,01,9.70
2017,05,14,09,02,9.70
2017,05,14,09,03,9.70
2017,05,14,09,04,9.70
2017,05,14,09,05,9.70
2017,05,14,09,06,9.70
2017,05,14,09,07,9.70
2017,05,14,09,08,9.70
2017,05,14,09,09,9.80
2017,05,14,09,10,9.80
2017,05,14,09,11,9.80
2017,05,14,09,12,9.80
2017,05,14,09,13,9.80
2017,05,14,09,14,9.80
2017,05,14,09,15,9.80
2017,05,14,09,16,9.80
2017,05,14,09,17,9.80
2017,05,14,09,18,9.90
2017,05,14,09,19,9.90
2017,05,14,09,20,9.90
2017,05,14,09,21,9.90
2017,05,14,09,22,9.90
2017,05,14,09,23,9.90
2017,05,14,09,24,9.90
2017,05,14,09,25,9.90
2017,05,14,09,26,9.90
2017,05,14,09,27,9.80
2017,05,14,09,28,9.80
2017,05,14,09,29,9.80
2017,05,14,09,30,9.80
2017,05,14,09,31,9.80
2017,05,14,09,32,9.80
2017,05,14,09,33,9.80
2017,05,14,09,34,9.80
2017,05,14,09,35,9.80
2017,05,14,09,36,9.80
2017,05,14,09,37,9.80
2017,05,14,09,38,9.80
2017,05,14,09,39,9.80
2017,05,14,09,40,9.80
2017,05,14,09,41,9.80
2017,05,14,09,42,9.80
2017,05,14,09,43,9.80
2017,05,14,09,44,9.80
2017,05,14,09,45,9.80
2017,05,14,09,46,9.70
2017,05,14,09,47,9.80
2017,05,14,09,48,9.80
2017,05,14,09,49,9.80
2017,05,14,09,50,9.80
2017,05,14,09,51,9.80
2017,05,14,09,52,9.80
2017,05,14,09,53,9.80
2017,05,14,09,54,9.90
2017,05,14,09,55,9.90
2017,05,14,09,56,9.90
2017,05,14,09,57,9.90
2017,05,14,09,58,9.90
2017,05,14,09,59,9.90
2017,05,14,10,00,10.00
2017,05,14,10,01,10.00
2017,05,14,10,02,10.00
2017,05,14,10,03,10.00
2017,05,14,10,04,10.10
2017,05,14,10,05,10.10
2017,05,14,10,06,10.20
2017,05,14,10,07,10.20
2017,05,14,10,08,10.30
2017,05,14,10,09,10.30
2017,05,14,10,10,10.40
2017,05,14,10,11,10.40
2017,05,14,10,12,10.50
2017,05,14,10,13,10.60
2017,05,14,10,14,10.70
2017,05,14,10,15,10.70
2017,05,14,10,16,10.90
2017,05,14,10,17,11.00
2017,05,14,10,18,11.00
2017,05,14,10,19,11.10
2017,05,14,10,20,11.20
2017,05,14,10,21,11.40
2017,05,14,10,22,11.60
2017,05,14,10,23,11.70
2017,05,14,10,24,11.80
2017,05,14,10,25,11.90
2017,05,14,10,26,12.00
2017,05,14,10,27,12.10
2017,05,14,10,28,12.10
2017,05,14,10,29,12.10
2017,05,14,10,30,12.10
2017,05,14,10,31,12.10
2017,05,14,10,32,12.00
2017,05,14,10,33,12.10
2017,05,14,10,34,12.10
2017,05,14,10,35,12.10
2017,05,14,10,36,12.20
2017,05,14,10,37,12.20
2017,05,14,10,38,12.20
2017,05,14,10,39,12.20
2017,05,14,10,40,12.20
2017,05,14,10,41,12.10
2017,05,14,10,42,12.10
2017,05,14,10,43,12.10
2017,05,14,10,44,12.10
2017,05,14,10,45,12.20
2017,05,14,10,46,12.20
2017,05,14,10,47,12.30
2017,05,14,10,48,12.40
2017,05,14,10,49,12.50
2017,05,14,10,50,12.50
2017,05,14,10,51,12.40
2017,05,14,10,52,12.40
2017,05,14,10,53,12.20
2017,05,14,10,54,12.20
2017,05,14,10,55,12.20
2017,05,14,10,56,12.20
2017,05,14,10,57,12.20
2017,05,14,10,58,12.20
2017,05,14,10,59,12.20
2017,05,14,11,00,12.30
2017,05,14,11,01,12.40
2017,05,14,11,02,12.40
2017,05,14,11,03,12.50
2017,05,14,11,04,12.40
2017,05,14,11,05,12.50
2017,05,14,11,06,12.40
2017,05,14,11,07,12.30
2017,05,14,11,08,12.30
2017,05,14,11,09,12.30
2017,05,14,11,10,12.40
2017,05,14,11,11,12.50
2017,05,14,11,12,12.60
2017,05,14,11,13,12.60
2017,05,14,11,14,12.50
2017,05,14,11,15,12.40
2017,05,14,11,16,12.30
2017,05,14,11,17,12.30
2017,05,14,11,18,12.40
2017,05,14,11,19,12.50
2017,05,14,11,20,12.50
2017,05,14,11,21,12.40
2017,05,14,11,22,12.20
2017,05,14,11,23,12.20
2017,05,14,11,24,12.10
2017,05,14,11,25,12.10
2017,05,14,11,26,12.10
2017,05,14,11,27,12.10
2017,05,14,11,28,12.10
2017,05,14,11,29,12.20
2017,05,14,11,30,12.40
2017,05,14,11,31,12.40
2017,05,14,11,32,12.40
2017,05,14,11,33,12.50
2017,05,14,11,34,12.70
2017,05,14,11,35,12.80
2017,05,14,11,36,12.80
2017,05,14,11,37,12.80
2017,05,14,11,38,12.70
2017,05,14,11,39,12.60
2017,05,14,11,40,12.40
2017,05,14,11,41,12.40
2017,05,14,11,42,12.30
2017,05,14,11,43,12.20
2017,05,14,11,44,12.10
2017,05,14,11,45,12.00
2017,05,14,11,46,11.90
2017,05,14,11,47,11.80
2017,05,14,11,48,11.70
2017,05,14,11,49,11.60
2017,05,14,11,50,11.60
2017,05,14,11,51,11.50
2017,05,14,11,52,11.60
2017,05,14,11,53,11.60
2017,05,14,11,54,11.60
2017,05,14,11,55,11.60
2017,05,14,11,56,11.60
2017,05,14,11,57,11.60
2017,05,14,11,58,11.60
2017,05,14,11,59,11.60
2017,05,14,12,00,11.60
2017,05,14,12,01,11.60
2017,05,14,12,02,11.60
2017,05,14,12,03,11.60
2017,05,14,12,04,11.60
2017,05,14,12,05,11.60
2017,05,14,12,06,11.60
2017,05,14,12,07,11.60
2017,05,14,12,08,11.60
2017,05,14,12,09,11.60
2017,05,14,12,10,11.60
2017,05,14,12,11,11.60
2017,05,14,12,12,11.60
2017,05,14,12,13,11.60
2017,05,14,12,14,11.60
2017,05,14,12,15,11.60
2017,05,14,12,16,11.60
2017,05,14,12,17,11.50
2017,05,14,12,18,11.50
2017,05,14,12,19,11.40
2017,05,14,12,20,11.40
2017,05,14,12,21,11.30
2017,05,14,12,22,11.30
2017,05,14,12,23,11.30
2017,05,14,12,24,11.40
2017,05,14,12,25,11.40
2017,05,14,12,26,11.50
2017,05,14,12,27,11.50
2017,05,14,12,28,11.60
2017,05,14,12,29,11.60
2017,05,14,12,30,11.60
2017,05,14,12,31,11.70
2017,05,14,12,32,11.70
2017,05,14,12,33,11.70
2017,05,14,12,34,11.80
2017,05,14,12,35,11.80
2017,05,14,12,36,11.80
2017,05,14,12,37,11.80
2017,05,14,12,38,11.80
2017,05,14,12,39,11.80
2017,05,14,12,40,11.80
2017,05,14,12,41,11.80
2017,05,14,12,42,11.80
2017,05,14,12,43,11.80
2017,05,14,12,44,11.80
2017,05,14,12,45,11.80
2017,05,14,12,46,11.80
2017,05,14,12,47,11.80
2017,05,14,12,48,11.80
2017,05,14,12,49,11.80
2017,05,14,12,50,11.80
2017,05,14,12,51,11.90
2017,05,14,12,52,11.90
2017,05,14,12,53,11.90
2017,05,14,12,54,11.90
2017,05,14,12,55,11.90
2017,05,14,12,56,12.00
2017,05,14,12,57,12.00
2017,05,14,12,58,12.10
2017,05,14,12,59,12.10
2017,05,14,13,00,12.10
2017,05,14,13,01,12.10
2017,05,14,13,02,12.20
2017,05,14,13,03,12.20
2017,05,14,13,04,12.20
2017,05,14,13,05,12.20
2017,05,14,13,06,12.20
2017,05,14,13,07,12.20
2017,05,14,13,08,12.10
2017,05,14,13,09,12.10
2017,05,14,13,10,12.10
2017,05,14,13,11,12.20
2017,05,14,13,12,12.20
2017,05,14,13,13,12.30
2017,05,14,13,14,12.30
2017,05,14,13,15,12.30
2017,05,14,13,16,12.30
2017,05,14,13,17,12.40
2017,05,14,13,18,12.40
2017,05,14,13,19,12.50
2017,05,14,13,20,12.60
2017,05,14,13,21,12.60
2017,05,14,13,22,12.60
2017,05,14,13,23,12.60
2017,05,14,13,24,12.60
2017,05,14,13,25,12.60
2017,05,14,13,26,12.60
2017,05,14,13,27,12.70
2017,05,14,13,28,12.70
2017,05,14,13,29,12.70
2017,05,14,13,30,12.80
2017,05,14,13,31,12.90
2017,05,14,13,32,13.00
2017,05,14,13,33,13.00
2017,05,14,13,34,13.00
2017,05,14,13,35,12.90
2017,05,14,13,36,12.80
2017,05,14,13,37,12.80
2017,05,14,13,38,12.70
2017,05,14,13,39,12.70
2017,05,14,13,40,12.60
2017,05,14,13,41,12.50
2017,05,14,13,42,12.40
2017,05,14,13,43,12.30
2017,05,14,13,44,12.20
2017,05,14,13,45,12.10
2017,05,14,13,46,12.10
2017,05,14,13,47,12.10
2017,05,14,13,48,12.00
2017,05,14,13,49,12.00
2017,05,14,13,50,12.00
2017,05,14,13,51,12.00
2017,05,14,13,52,12.00
2017,05,14,13,53,12.00
2017,05,14,13,54,11.90
2017,05,14,13,55,11.90
2017,05,14,13,56,12.00
2017,05,14,13,57,12.10
2017,05,14,13,58,12.20
2017,05,14,13,59,12.30
2017,05,14,14,00,12.40
2017,05,14,14,01,12.50
2017,05,14,14,02,12.60
2017,05,14,14,03,12.80
2017,05,14,14,04,12.90
2017,05,14,14,05,12.80
2017,05,14,14,06,12.90
2017,05,14,14,07,13.00
2017,05,14,14,08,13.10
2017,05,14,14,09,13.10
2017,05,14,14,10,13.20
2017,05,14,14,11,13.20
2017,05,14,14,12,13.30
2017,05,14,14,13,13.40
2017,05,14,14,14,13.40
2017,05,14,14,15,13.40
2017,05,14,14,16,13.50
2017,05,14,14,17,13.60
2017,05,14,14,18,13.70
2017,05,14,14,19,13.70
2017,05,14,14,20,13.70
2017,05,14,14,21,13.60
2017,05,14,14,22,13.60
2017,05,14,14,23,13.70
2017,05,14,14,24,13.60
2017,05,14,14,25,13.60
2017,05,14,14,26,13.60
2017,05,14,14,27,13.60
2017,05,14,14,28,13.60
2017,05,14,14,29,13.60
2017,05,14,14,30,13.70
2017,05,14,14,31,13.60
2017,05,14,14,32,13.50
2017,05,14,14,33,13.40
2017,05,14,14,34,13.30
2017,05,14,14,35,13.30
2017,05,14,14,36,13.30
2017,05,14,14,37,13.30
2017,05,14,14,38,13.20
2017,05,14,14,39,13.10
2017,05,14,14,40,13.10
2017,05,14,14,41,13.00
2017,05,14,14,42,12.90
2017,05,14,14,43,12.90
2017,05,14,14,44,12.80
2017,05,14,14,45,12.70
2017,05,14,14,46,12.70
2017,05,14,14,47,12.60
2017,05,14,14,48,12.50
2017,05,14,14,49,12.50
2017,05,14,14,50,12.50
2017,05,14,14,51,12.50
2017,05,14,14,52,12.60
2017,05,14,14,53,12.60
2017,05,14,14,54,12.70
2017,05,14,14,55,12.70
2017,05,14,14,56,12.80
2017,05,14,14,57,12.80
2017,05,14,14,58,12.80
2017,05,14,14,59,12.80
2017,05,14,15,00,12.80
2017,05,14,15,01,12.80
2017,05,14,15,02,12.70
2017,05,14,15,03,12.70
2017,05,14,15,04,12.60
2017,05,14,15,05,12.60
2017,05,14,15,06,12.50
2017,05,14,15,07,12.40
2017,05,14,15,08,12.40
2017,05,14,15,09,12.30
2017,05,14,15,10,12.40
2017,05,14,15,11,12.40
2017,05,14,15,12,12.40
2017,05,14,15,13,12.60
2017,05,14,15,14,12.70
2017,05,14,15,15,12.90
2017,05,14,15,16,13.00
2017,05,14,15,17,13.10
2017,05,14,15,18,13.20
2017,05,14,15,19,13.40
2017,05,14,15,20,13.40
2017,05,14,15,21,13.50
2017,05,14,15,22,13.50
2017,05,14,15,23,13.60
2017,05,14,15,24,13.60
2017,05,14,15,25,13.70
2017,05,14,15,26,13.70
2017,05,14,15,27,13.70
2017,05,14,15,28,13.80
2017,05,14,15,29,13.70
2017,05,14,15,30,13.70
2017,05,14,15,31,13.60
2017,05,14,15,32,13.40
2017,05,14,15,33,13.40
2017,05,14,15,34,13.40
2017,05,14,15,35,13.30
2017,05,14,15,36,13.30
2017,05,14,15,37,13.30
2017,05,14,15,38,13.30
2017,05,14,15,39,13.30
2017,05,14,15,40,13.30
2017,05,14,15,41,13.30
2017,05,14,15,42,13.40
2017,05,14,15,43,13.40
2017,05,14,15,44,13.50
2017,05,14,15,45,13.60
2017,05,14,15,46,13.70
2017,05,14,15,47,13.70
2017,05,14,15,48,13.70
2017,05,14,15,49,13.80
2017,05,14,15,50,13.90
2017,05,14,15,51,13.90
2017,05,14,15,52,13.90
2017,05,14,15,53,13.80
2017,05,14,15,54,13.80
2017,05,14,15,55,13.80
2017,05,14,15,56,13.90
2017,05,14,15,57,14.10
2017,05,14,15,58,14.20
2017,05,14,15,59,14.20
2017,05,14,16,00,14.30
2017,05,14,16,01,14.30
2017,05,14,16,02,14.40
2017,05,14,16,03,14.50
2017,05,14,16,04,14.50
2017,05,14,16,05,14.40
2017,05,14,16,06,14.30
2017,05,14,16,07,14.30
2017,05,14,16,08,14.30
2017,05,14,16,09,14.20
2017,05,14,16,10,14.10
2017,05,14,16,11,14.00
2017,05,14,16,12,13.90
2017,05,14,16,13,13.80
2017,05,14,16,14,13.90
2017,05,14,16,15,14.00
2017,05,14,16,16,14.20
2017,05,14,16,17,14.40
2017,05,14,16,18,14.60
2017,05,14,16,19,14.70
2017,05,14,16,20,14.70
2017,05,14,16,21,14.70
2017,05,14,16,22,14.70
2017,05,14,16,23,14.70
2017,05,14,16,24,14.80
2017,05,14,16,25,14.80
2017,05,14,16,26,14.80
2017,05,14,16,27,14.80
2017,05,14,16,28,14.80
2017,05,14,16,29,14.80
2017,05,14,16,30,14.80
2017,05,14,16,31,14.80
2017,05,14,16,32,14.80
2017,05,14,16,33,14.80
2017,05,14,16,34,14.80
2017,05,14,16,35,14.80
2017,05,14,16,36,14.90
2017,05,14,16,37,14.90
2017,05,14,16,38,14.90
2017,05,14,16,39,14.90
2017,05,14,16,40,14.90
2017,05,14,16,41,14.90
2017,05,14,16,42,15.00
2017,05,14,16,43,15.10
2017,05,14,16,44,15.10
2017,05,14,16,45,15.00
2017,05,14,16,46,14.90
2017,05,14,16,47,14.90
2017,05,14,16,48,14.80
2017,05,14,16,49,14.70
2017,05,14,16,50,14.60
2017,05,14,16,51,14.60
2017,05,14,16,52,14.70
2017,05,14,16,53,14.70
2017,05,14,16,54,14.80
2017,05,14,16,55,14.90
2017,05,14,16,56,14.90
2017,05,14,16,57,14.80
2017,05,14,16,58,14.80
2017,05,14,16,59,14.80
2017,05,14,17,00,14.90
2017,05,14,17,01,15.00
2017,05,14,17,02,15.00
2017,05,14,17,03,15.00
2017,05,14,17,04,14.80
2017,05,14,17,05,14.60
2017,05,14,17,06,14.50
2017,05,14,17,07,14.50
2017,05,14,17,08,14.40
2017,05,14,17,09,14.50
2017,05,14,17,10,14.60
2017,05,14,17,11,14.60
2017,05,14,17,12,14.60
2017,05,14,17,13,14.60
2017,05,14,17,14,14.60
2017,05,14,17,15,14.60
2017,05,14,17,16,14.60
2017,05,14,17,17,14.70
2017,05,14,17,18,14.70
2017,05,14,17,19,14.60
2017,05,14,17,20,14.50
2017,05,14,17,21,14.40
2017,05,14,17,22,14.30
2017,05,14,17,23,14.30
2017,05,14,17,24,14.20
2017,05,14,17,25,14.10
2017,05,14,17,26,14.10
2017,05,14,17,27,14.10
2017,05,14,17,28,14.10
2017,05,14,17,29,14.20
2017,05,14,17,30,14.30
2017,05,14,17,31,14.30
2017,05,14,17,32,14.40
2017,05,14,17,33,14.40
2017,05,14,17,34,14.40
2017,05,14,17,35,14.50
2017,05,14,17,36,14.50
2017,05,14,17,37,14.60
2017,05,14,17,38,14.50
2017,05,14,17,39,14.60
2017,05,14,17,40,14.50
2017,05,14,17,41,14.40
2017,05,14,17,42,14.30
2017,05,14,17,43,14.20
2017,05,14,17,44,14.10
2017,05,14,17,45,14.00